Regional Weather Roundup
Issued by NWS

Home | Current Version | Previous Version | Text Only | Print | Product List | Glossary Off
Versions: 1 2 3 4 5 6 7 8 9 10 11 12 13 14 15 16 17 18 19 20 21 22 23 24 25 26 27 28 29 30 31 32 33 34 35 36 37 38 39 40 41 42 43 44 45 46 47 48 49 50

000
ASUS43 KFSD 022110
RWRSD

WEATHER ROUNDUP FOR SOUTH DAKOTA
NATIONAL WEATHER SERVICE SIOUX FALLS SD
400 PM CDT MON MAY 02 2016

NOTE: "FAIR" INDICATES FEW OR NO CLOUDS BELOW 12,000 FEET WITH NO
SIGNIFICANT WEATHER AND/OR OBSTRUCTIONS TO VISIBILITY.


SDZ001>005-009-010-012>017-022200-
NORTHWEST AND NORTH CENTRAL SOUTH DAKOTA

CITY           SKY/WX    TMP DP  RH WIND       PRES   REMARKS
BUFFALO          N/A     67  34  29 NW25G32   29.95F
FAITH            N/A     54  40  59 NE3       30.01R
MOBRIDGE       CLOUDY    59  50  72 SW10      29.95F
$$

SDZ012>016-024>037-041>051-057-063-072>074-022200-
SOUTHWEST AND SOUTH CENTRAL SOUTH DAKOTA

CITY           SKY/WX    TMP DP  RH WIND       PRES   REMARKS
RAPID CTY ARPT PTSUNNY   66  34  30 NW22G28   30.02F
PIERRE         CLOUDY    57  42  57 NW6       30.01F
CUSTER         CLOUDY    52  29  41 SE9G22    30.08S
ELLSWORTH AFB  MOSUNNY   65  31  28 NW21G28   30.02F
PHILIP         LGT RAIN  54  45  71 NE20G25   30.05R
WINNER         CLOUDY    63  37  38 W10       30.02F
$$

SDZ004>011-016>023-039-040-022200-
NORTHEAST SOUTH DAKOTA

CITY           SKY/WX    TMP DP  RH WIND       PRES   REMARKS
ABERDEEN       CLOUDY    58  45  62 NW15      30.02F
WATERTOWN      CLOUDY    62  31  31 S5        30.01F
BROOKINGS      CLOUDY    61  33  35 NE3       30.02F
SISSETON         N/A     66  26  22 SE3       29.98F
$$

SDZ017-020-022-023-036>040-048>070-022200-
SOUTHEAST SOUTH DAKOTA

CITY           SKY/WX    TMP DP  RH WIND       PRES   REMARKS
SIOUX FALLS    CLOUDY    62  36  37 VRB3      30.04F
HURON          CLOUDY    65  35  33 W8        30.00F
CHAMBERLAIN    CLOUDY    63  44  49 SW14      30.00F
MITCHELL       MOSUNNY   63  38  39 VRB6      30.03F
YANKTON        CLOUDY    61  36  39 SW6       30.04F
$$

ABBREVIATIONS USED IN REMARKS
   TC - TEMPERATURE IN CELSIUS
  WCI - WIND CHILL INDEX
   HX - HEAT INDEX
  VSB - VISIBILITY





USA.gov is the U.S. government's official web portal to all federal, state and local government web resources and services.